Location: Broek
(53.2737°N, 5.9967°E)
Time: 22:34:02
(UTC+00:00)

USA 267 - Pass Details

Date: 10 October 2024
Orbit: 1099 x 1109 km, 123.0° (Epoch: 27 October)

Event Time Altitude Azimuth Distance (km) Brightness Sun altitude
Exits shadow 20:51:37 44° 243° (WSW) 1,485 3.9 -34.6°
Drops below altitude 10° 20:55:52 10° 246° (WSW) 2,967 5.7 -35.1°
Sets 20:58:21 0° 246° (WSW) 3,924 6.4 -35.3°
